STARLINK-11385, 62014

Orbit data source: Space-Track

STARLINK-11385, 62014 is a payload satellite owned by SpaceX/Seattle (US) in LEO that was launched on Mon, 18 Nov 2024 UTC via an FALCON 9 launch vehicle from the Air Force Western Test Range (AFWTR). Payload-class satellites include a variety of spacecraft equipped with specific instruments for various scientific and technological missions. These include communications satellites like Starlink; space stations such as the ISS; scientific satellites like the Hubble; Earth observation satellites from companies like Planet Labs, Umbra, and HawkEye 360; GPS; miniature CubeSats for education and research; and military/defense satellites.

Loading next visibility...
Identifier
62014, 2024-213G
Orbit
LEO
Last TLE update
16 hours ago
Origin
Manufacturer
SpaceX/Seattle
Mission
Operational Commercial Communications
Bus & Motor
STARLINK V2M, Unknown motor
Mass
730 kg wet, ~700 kg dry
Launch date (UTC)
2024-11-18 (8 months ago)
Launch vehicle
FALCON 9
Launch site
Air Force Western Test Range (AFWTR)
Object type
Payload
Rocket body
Debris
Shape & HBR
Box + 2 Pan, 29 m
Radar Cross Section
36.964 m², Large (>1 m²)

Expand to show TLE details & history

TLE from 16 hours ago
0 STARLINK-11385
1 62014U 24213G   25186.40286476  .00139869  00000-0  11380-2 0  9995
2 62014  53.1567 180.4696 0001087  82.0977 278.0164 15.69752076 36077
Epoch: 2025-07-05T09:40Z
TLE epoch observation values (Epoch: 2025-07-05T09:40:07.515Z)
Latitude
-0.00003°
Longitude
111.79685°
Altitude
360.419 km
Speed
7.694 km/s
True Right ascension
12h 01m 52s
True Declination
0° 00' 00"
Sunlit
Object was in daylight at epoch
Visualization orbit readout
Latitude
52.58728°
Longitude
-148.35113°
Altitude
364.779 km
Speed
7.697 km/s
Apparent Right ascension
22h 23m 34s
Apparent Declination
12° 08' 53"
Sunlit
Object is in daylight
Visualization observer readout
Local Sidereal Time
13:18:27
Azimuth
47.704° ENE
Elevation
-24.007°
Doppler factor
1
Orbital elements
Apogee altitude
360.6 km
Perigee altitude
359.135 km
Semi-major axis
6,738.005 km
Eccentricity
0.00011
Inclination
53.1567°
RAAN
180.4696°
Arg. of periapsis
82.0977°
True anomaly
Unknown
Mean anomaly
278.0164°
Eccentric anomaly
Unknown
Mean motion
3.92416 °/min
Orbital period
91.74 mins
BSTAR
0.001138
Loading maneuver chart data...
Loading SW <> Apogee altitude chart data...
Loading historical data...
Loading historical data...
Loading historical data...
Loading historical data...
Loading historical data...
Loading historical data...
Loading historical data...

STARLINK-11385 Visibility forecast

Observer location: undefined°, undefined°

Span
Click to sort rows by Start time (UTC) header in descending order
Start Az.
Max El. time (UTC)
Max El. Az.
Max El.
End time (UTC)
End Az.
4 mins2025-07-06 02:40:47.398Z247.053° WSW2025-07-06 02:42:47.398Z329.335° NNW39.863°2025-07-06 02:44:47.398Z38.653° NE
4 mins2025-07-06 09:05:47.398Z312.573° NW2025-07-06 09:07:47.398Z119.425° SE41.577°2025-07-06 09:09:47.398Z128.629° SE
|